Regional Weather Roundup
Issued by NWS

Home | Current Version | Previous Version | Text Only | Print | Product List | Glossary On
Versions: 1 2 3 4 5 6 7 8 9 10 11 12 13 14 15 16 17 18 19 20 21 22 23 24 25 26 27 28 29 30 31 32 33 34 35 36 37 38 39 40 41 42 43 44 45 46 47 48 49 50
000
ASUS43 KDMX 301307
RWRIA

WEATHER ROUNDUP FOR IOWA
NATIONAL WEATHER SERVICE DES MOINES IA
800 AM CDT SAT MAY 30 2015

NOTE: "FAIR" INDICATES FEW OR NO CLOUDS BELOW 12,000 FEET WITH NO
SIGNIFICANT WEATHER AND/OR OBSTRUCTIONS TO VISIBILITY.

* - THESE STATIONS ARE NOT NWS STATIONS...THUS NOT UNDER NWS
QUALITY CONTROL.  THEY ALSO DO NOT REPORT WEATHER SUCH
AS PRECIPITATION OR FOG.

IAZ001>003-012>014-020>022-031>034-043>046-301400-
   NORTHWEST IOWA

CITY           SKY/WX    TMP DP  RH WIND       PRES   REMARKS
CARROLL *      CLOUDY    52  48  87 N17G24    30.13R
CHEROKEE *     CLOUDY    48  45  87 N16G23    30.18R
DENISON *      CLOUDY    50  48  93 NE13G23   30.13R
LE MARS *      PTSUNNY   48  43  81 N17G25    30.22R
ORANGE CITY *  SUNNY     45  39  81 N13       30.21R
SHELDON *      SUNNY     46  43  87 N20G25    30.19R
SIOUX CITY     PTSUNNY   53  42  66 N20       30.21R
SPENCER        CLOUDY    50  42  74 N22       30.17R
STORM LAKE *   CLOUDY    50  45  81 N23G30    30.16R
$$

IAZ055>058-069>071-079>083-090>094-301400-
   SOUTHWEST IOWA

CITY           SKY/WX    TMP DP  RH WIND       PRES   REMARKS
ATLANTIC *     CLOUDY    52  52 100 N10       30.12R
AUDUBON *      CLOUDY    52  48  87 N13       30.13R
CLARINDA *     CLOUDY    55  52  88 N14       30.12R
COUNCIL BLFS * CLOUDY    52  52 100 N12       30.14R
CRESTON *      CLOUDY    54  54 100 N14G21    30.08R
HARLAN  *      CLOUDY    52  52 100 N17G24    30.16R
LAMONI         CLOUDY    58  53  84 N12       30.05R
RED OAK *      CLOUDY    54  52  94 N13G21    30.13R
SHENANDOAH *   CLOUDY    54  52  94 N14       30.13R
$$

IAZ047>049-059>061-072>074-084-301400-
   CENTRAL IOWA

CITY           SKY/WX    TMP DP  RH WIND       PRES   REMARKS
AMES           CLOUDY    56  52  86 N16G23    30.06R
ANKENY *       CLOUDY    55  55 100 N8G15     30.05R
CHARITON *     CLOUDY    57  55  94 N12G20    30.04R FOG
DES MOINES     CLOUDY    57  53  86 N12       30.05R
GRINNELL*      CLOUDY    57  54  88 N17       30.03R
KNOXVILLE *    CLOUDY    57  55  94 N10       30.02R FOG
MARSHALLTOWN   CLOUDY    55  53  93 N21       30.04R
PELLA *        CLOUDY    57  57 100 N9G17     30.04R
PERRY *        CLOUDY    54  52  94 N13G21    30.09R
$$

IAZ004>006-015-016-023>025-035-036-301400-
   NORTH CENTRAL IOWA

CITY           SKY/WX    TMP DP  RH WIND       PRES   REMARKS
ALGONA *       CLOUDY    50  46  87 N21G32    30.14R
CLARION *      CLOUDY    52  48  87 N20G28    30.10R
ESTHERVILLE    CLOUDY    47  42  83 N22G29    30.17R
FORT DODGE *   CLOUDY    52  45  76 N13       30.12R
MASON CITY     CLOUDY    52  47  83 N23G31    30.12R
FOREST CITY *  CLOUDY    50  45  81 N17G25    30.12R
IOWA FALLS *   CLOUDY    54  50  87 N14       30.07R
$$

IAZ007>011-017>019-026>030-037>042-050>054-066-301400-
   NORTHEAST IOWA

CITY           SKY/WX    TMP DP  RH WIND       PRES   REMARKS
CEDAR RAPIDS   CLOUDY    63  61  93 N13       29.98R
CHARLES CITY * CLOUDY    54  54 100 N17G23    30.08R
CLINTON *      CLOUDY    66  63  88 SW7       29.98S
DECORAH *      CLOUDY    54  54 100 N12G22    30.04R
DUBUQUE        LGT RAIN  64  63  96 N14       29.97R FOG
MONTICELLO *   CLOUDY    63  63 100 N14       29.97R
OELWEIN *      CLOUDY    55  55 100 N21       30.03R
WATERLOO       CLOUDY    56  53  90 N21       30.03R
$$

IAZ064-065-067-068-078-301400-
   EAST CENTRAL IOWA

CITY           SKY/WX    TMP DP  RH WIND       PRES   REMARKS
DAVENPORT      CLOUDY    67  63  87 SW8       29.96S
IOWA CITY      CLOUDY    65  62  90 NW10      29.98R
MT. PLEASANT * CLOUDY    66  66 100 W5        29.97R
MUSCATINE *    PTSUNNY   68  64  88 NW5       29.96S
QUAD CITIES    CLOUDY    67  64  90 W5        29.95F
$$

IAZ062-063-075>077-085>089-095>099-301400-
   SOUTHEAST IOWA

CITY           SKY/WX    TMP DP  RH WIND       PRES   REMARKS
BURLINGTON     LGT RAIN  66  65  96 SW7       29.97R
FAIRFIELD *    CLOUDY    63  61  94 NW13      29.98R
FORT MADISON * DRIZZLE   64  64 100 S7        29.98R
KEOKUK *       CLOUDY    66  64  94 SW5       29.97R
OSKALOOSA *    CLOUDY    59  57  94 N15       30.01R
CENTERVILLE *  CLOUDY    57  57 100 NW15      30.03R
OTTUMWA        CLOUDY    60  59  96 N15       30.00R
WASHINGTON *   CLOUDY    64  63  94 NW13      29.98S
$$

ABBREVIATIONS USED IN REMARKS
   TC - TEMPERATURES IN CELSIUS
  WCI - WIND CHILL INDEX
   HX - HEAT INDEX
  VSB - VISIBILITY
$$




USA.gov is the U.S. government's official web portal to all federal, state and local government web resources and services.